QPF
0.00 0.00 0.00 0.00 0.00 0.00 0.00 0.00 0.00 0.00 0.00 0.00 0.00 0.00 0.00 0.00 0.00 0.00 0.00 0.00 0.00 0.00 0.00 0.00 0.00 0.00 0.00 0.00 0.00 0.00 0.00 0.00 0.00 0.00 0.00 0.00 0.00 0.00
0.00 0.00 0.00 0.00 0.00 0.00 0.00 0.00 0.00 0.00 0.00 0.00 0.00 0.00 0.00 0.00 0.00 0.00 0.00 0.00 0.00 0.00 0.00 0.00 0.00 0.00 0.00 0.00 0.00 0.00 0.00 0.00 0.00 0.00 0.00 0.00 0.00 0.00
0.02 0.00 0.00 0.00 0.00 0.00 0.00 0.00 0.00 0.00 0.00 0.00 0.00 0.00 0.00 0.00 0.00 0.00 0.00 0.00 0.00 0.00 0.00 0.00 0.00 0.00 0.00 0.00 0.00 0.00 0.00 0.00 0.00 0.00 0.00 0.00 0.00 0.00
0.01 0.00 0.00 0.00 0.00 0.00 0.00 0.00 0.00 0.00 0.00 0.00 0.00 0.00 0.00 0.00 0.00 0.00 0.00 0.00 0.00 0.00 0.00 0.00 0.00 0.00 0.00 0.00 0.00 0.00 0.00 0.00 0.00 0.00 0.00 0.00 0.00 0.00
0.01 0.01 0.00 0.01 0.00 0.00 0.00 0.00 0.00 0.00 0.00 0.00 0.00 0.00 0.00 0.00 0.00 0.00 0.00 0.00 0.00 0.00 0.00 0.00 0.00 0.00 0.00 0.00 0.00 0.00 0.00 0.00 0.00 0.00 0.00 0.00 0.00 0.00
0.00 0.00 0.00 0.00 0.00 0.00 0.00 0.00 0.00 0.00 0.00 0.00 0.00 0.00 0.00 0.00 0.00 0.00 0.00 0.00 0.00 0.00 0.00 0.00 0.00 0.00 0.00 0.00 0.00 0.00 0.00 0.00 0.00 0.00 0.00 0.00 0.00 0.00
0.01 0.00 0.00 0.00 0.00 0.01 0.00 0.01 0.00 0.00 0.00 0.00 0.00 0.00 0.00 0.00 0.00 0.00 0.00 0.00 0.00 0.01 0.00 0.00 0.00 0.00 0.00 0.00 0.00 0.00 0.00 0.00 0.00 0.00 0.00 0.00 0.00 0.00
0.02 0.01 0.01 0.00 0.01 0.02 0.02 0.02 0.01 0.00 0.00 0.00 0.00 0.00 0.00 0.00 0.00 0.00 0.00 0.00 0.00 0.00 0.02 0.01 0.00 0.00 0.00 0.00 0.00 0.00 0.00 0.00 0.00 0.00 0.00 0.00 0.00 0.00
0.04 0.05 0.03 0.02 0.02 0.02 0.02 0.01 0.01 0.01 0.01 0.01 0.00 0.00 0.00 0.00 0.01 0.02 0.02 0.01 0.00 0.01 0.01 0.01 0.00 0.00 0.00 0.00 0.01 0.01 0.00 0.00 0.00 0.00 0.00 0.00 0.00 0.00
0.02 0.03 0.03 0.04 0.03 0.02 0.02 0.03 0.03 0.01 0.01 0.01 0.00 0.00 0.00 0.01 0.02 0.02 0.02 0.01 0.01 0.01 0.01 0.01 0.00 0.00 0.00 0.00 0.00 0.00 0.00 0.00 0.00 0.00 0.00 0.00 0.00 0.00
0.00 0.00 0.01 0.01 0.00 0.00 0.01 0.02 0.02 0.02 0.01 0.00 0.00 0.00 0.00 0.00 0.00 0.01 0.00 0.00 0.00 0.00 0.00 0.00 0.00 0.00 0.00 0.00 0.00 0.00 0.00 0.00 0.00 0.00 0.00 0.00 0.00 0.00
0.00 0.00 0.00 0.00 0.00 0.00 0.00 0.00 0.00 0.00 0.00 0.00 0.00 0.00 0.00 0.00 0.00 0.00 0.00 0.00 0.00 0.00 0.00 0.00 0.00 0.00 0.00 0.00 0.00 0.00 0.00 0.00 0.00 0.00 0.00 0.00 0.00 0.00
0.00 0.00 0.00 0.00 0.00 0.00 0.00 0.00 0.00 0.00 0.00 0.00 0.00 0.00 0.00 0.00 0.00 0.00 0.00 0.00 0.00 0.00 0.00 0.00 0.00 0.00 0.00 0.00 0.00 0.00 0.00 0.00 0.00 0.00 0.00 0.00 0.00 0.00
0.00 0.00 0.00 0.00 0.00 0.00 0.00 0.00 0.00 0.00 0.00 0.00 0.00 0.00 0.00 0.00 0.00 0.00 0.00 0.00 0.00 0.00 0.00 0.00 0.00 0.00 0.00 0.00 0.00 0.00 0.00 0.00 0.00 0.00 0.00 0.00 0.00 0.00
0.00 0.00 0.00 0.00 0.00 0.00 0.00 0.00 0.00 0.00 0.00 0.00 0.00 0.00 0.00 0.00 0.00 0.00 0.00 0.00 0.00 0.00 0.00 0.00 0.00 0.00 0.00 0.00 0.00 0.00 0.00 0.00 0.00 0.00 0.00 0.00 0.00 0.00
0.00 0.00 0.00 0.00 0.00 0.00 0.00 0.00 0.00 0.00 0.00 0.00 0.00 0.00 0.00 0.00 0.00 0.00 0.00 0.00 0.00 0.00 0.00 0.00 0.00 0.00 0.00 0.00 0.00 0.00 0.00 0.00 0.00 0.00 0.00 0.00 0.00 0.00
0.00 0.00 0.00 0.00 0.00 0.00 0.00 0.00 0.00 0.00 0.00 0.00 0.00 0.00 0.00 0.00 0.00 0.00 0.00 0.00 0.00 0.00 0.00 0.00 0.00 0.00 0.00 0.00 0.00 0.00 0.00 0.00 0.00 0.00 0.00 0.00 0.00 0.00
0.00 0.00 0.00 0.00 0.00 0.00 0.00 0.00 0.00 0.00 0.00 0.00 0.00 0.00 0.00 0.00 0.00 0.00 0.00 0.00 0.00 0.00 0.00 0.00 0.00 0.00 0.00 0.00 0.00 0.00 0.00 0.00 0.00 0.00 0.00 0.00 0.00 0.00
0.00 0.00 0.00 0.00 0.00 0.00 0.00 0.00 0.00 0.00 0.00 0.00 0.00 0.00 0.00 0.00 0.00 0.00 0.00 0.00 0.00 0.00 0.00 0.00 0.00 0.00 0.00 0.00 0.00 0.00 0.00 0.00 0.00 0.00 0.00 0.00 0.00 0.00
0.00 0.00 0.00 0.00 0.00 0.00 0.00 0.00 0.00 0.00 0.00 0.00 0.00 0.00 0.00 0.00 0.00 0.00 0.00 0.00 0.00 0.00 0.00 0.00 0.00 0.00 0.00 0.00 0.00 0.00 0.00 0.00 0.00 0.00 0.00 0.00 0.00 0.00
0.00 0.00 0.00 0.00 0.00 0.00 0.00 0.00 0.00 0.00 0.00 0.00 0.00 0.00 0.00 0.00 0.00 0.00 0.00 0.00 0.00 0.00 0.00 0.00 0.00 0.00 0.00 0.00 0.00 0.00 0.00 0.00 0.00 0.00 0.00 0.00 0.00 0.00
0.00 0.00 0.00 0.00 0.00 0.00 0.00 0.00 0.00 0.00 0.00 0.00 0.00 0.00 0.00 0.00 0.00 0.00 0.00 0.00 0.00 0.00 0.00 0.00 0.00 0.00 0.00 0.00 0.00 0.00 0.00 0.00 0.00 0.00 0.00 0.00 0.00 0.00
0.00 0.00 0.00 0.00 0.00 0.00 0.00 0.00 0.00 0.00 0.00 0.00 0.00 0.00 0.00 0.00 0.00 0.00 0.00 0.00 0.00 0.00 0.00 0.00 0.00 0.00 0.00 0.00 0.00 0.00 0.00 0.00 0.00 0.00 0.00 0.00 0.00 0.00
MSLP
1009.90 1010.44 1011.11 1011.64 1012.30 1012.75 1013.20 1013.89 1014.75 1016.16 1016.54 1016.32 1016.72 1016.59 1017.14 1017.82 1018.09 1018.90 1019.58 1020.33 1021.06 1021.66 1022.30 1022.96 1023.57 1024.04 1024.50 1024.91 1025.37 1025.81 1026.16 1026.57 1027.00 1027.43 1027.72 1028.02 1028.39 1028.69
1009.10 1009.82 1010.53 1011.05 1011.62 1012.24 1012.68 1012.95 1013.50 1014.38 1015.24 1015.26 1015.45 1015.60 1015.99 1016.52 1017.18 1017.70 1018.05 1018.79 1019.77 1020.55 1021.31 1022.01 1022.60 1023.09 1023.62 1024.21 1024.64 1025.11 1025.51 1025.86 1026.28 1026.69 1027.15 1027.50 1027.81 1028.15
1008.53 1009.22 1009.73 1010.35 1011.05 1011.60 1012.14 1012.61 1013.22 1013.71 1014.25 1014.53 1014.37 1014.97 1015.47 1015.64 1016.15 1016.74 1017.03 1017.84 1018.64 1019.37 1020.16 1020.96 1021.59 1022.10 1022.70 1023.26 1023.86 1024.35 1024.72 1025.07 1025.43 1025.82 1026.25 1026.64 1027.01 1027.50
1007.78 1008.63 1009.15 1009.88 1010.56 1010.99 1011.49 1012.01 1012.47 1012.78 1013.51 1014.24 1014.22 1014.71 1014.74 1014.81 1015.29 1015.98 1016.30 1016.77 1017.46 1018.37 1019.15 1019.95 1020.54 1021.12 1021.62 1022.24 1022.87 1023.41 1023.85 1024.28 1024.62 1024.92 1025.23 1025.73 1026.25 1026.71
1006.77 1007.59 1007.92 1009.17 1009.76 1010.11 1010.52 1011.03 1011.46 1011.80 1012.56 1013.42 1013.90 1014.26 1014.28 1014.60 1015.26 1015.58 1015.85 1016.17 1016.58 1017.06 1018.08 1018.67 1019.23 1019.96 1020.69 1021.35 1021.82 1022.22 1022.64 1023.05 1023.64 1024.01 1024.34 1024.76 1025.24 1025.66
1006.04 1006.66 1006.99 1007.56 1008.52 1009.27 1009.62 1009.85 1010.38 1011.14 1011.63 1012.41 1013.19 1013.73 1014.00 1014.17 1014.53 1015.20 1015.76 1015.75 1016.23 1016.67 1017.26 1017.67 1018.40 1019.14 1019.73 1020.11 1020.46 1020.85 1021.43 1021.98 1022.46 1022.85 1023.40 1024.02 1024.43 1024.54
1005.07 1005.30 1005.54 1006.09 1006.59 1007.53 1008.64 1009.23 1009.65 1010.18 1010.78 1011.30 1012.19 1012.78 1013.14 1013.66 1014.06 1014.36 1014.93 1015.32 1015.64 1015.99 1016.85 1017.53 1018.19 1018.72 1018.93 1019.48 1019.68 1020.02 1020.29 1020.74 1021.29 1021.76 1022.23 1022.74 1023.09 1023.41
1004.94 1004.49 1004.82 1005.29 1005.86 1006.34 1007.09 1007.79 1008.80 1009.29 1009.70 1010.18 1010.68 1011.35 1011.84 1012.05 1012.82 1013.46 1014.02 1014.96 1015.84 1015.28 1015.91 1016.62 1016.97 1017.65 1017.75 1018.06 1018.17 1018.54 1019.14 1019.68 1020.13 1020.55 1021.03 1021.39 1021.61 1021.78
1004.24 1005.87 1004.06 1004.89 1005.10 1005.67 1006.23 1006.66 1007.24 1007.84 1008.11 1008.71 1009.35 1009.86 1010.40 1010.94 1011.85 1012.61 1012.85 1013.13 1013.48 1013.94 1014.59 1015.69 1016.27 1016.46 1016.59 1016.91 1017.17 1017.41 1018.00 1018.60 1018.93 1019.34 1019.83 1020.10 1020.51 1020.76
1005.93 1006.90 1006.76 1005.68 1005.66 1004.23 1004.84 1006.11 1006.59 1007.27 1007.86 1008.08 1008.04 1008.54 1009.07 1009.57 1010.15 1010.80 1011.44 1012.12 1013.40 1013.68 1013.81 1015.12 1015.49 1015.73 1015.36 1015.88 1016.37 1016.52 1016.98 1017.44 1017.81 1018.27 1018.74 1019.13 1019.44 1019.95
1008.23 1008.35 1008.62 1008.29 1006.44 1005.21 1004.09 1004.98 1006.10 1006.33 1007.15 1007.58 1008.08 1008.24 1008.63 1009.03 1009.59 1010.55 1011.44 1012.40 1013.09 1012.99 1013.62 1013.82 1015.09 1015.56 1015.54 1015.50 1015.41 1015.55 1015.62 1016.52 1016.98 1017.34 1017.86 1018.27 1018.72 1019.23
1008.76 1008.49 1008.28 1007.98 1008.42 1006.97 1005.97 1004.97 1005.67 1006.42 1006.51 1007.12 1007.69 1007.95 1008.21 1008.74 1008.96 1009.55 1010.09 1010.92 1011.90 1012.82 1012.64 1013.51 1014.42 1015.21 1015.93 1015.29 1015.36 1015.22 1015.23 1015.47 1016.11 1016.58 1016.80 1017.46 1018.04 1018.49
1010.34 1010.59 1009.53 1009.23 1009.48 1009.68 1007.12 1007.46 1007.87 1008.03 1008.05 1007.02 1006.84 1007.21 1007.79 1008.45 1008.78 1008.97 1009.17 1009.52 1010.71 1011.10 1011.22 1012.14 1013.59 1014.56 1014.89 1015.48 1015.21 1015.10 1014.84 1015.25 1015.56 1015.66 1016.08 1016.69 1017.31 1017.54
1010.66 1011.08 1010.54 1010.18 1010.78 1008.67 1009.61 1007.91 1007.72 1007.71 1008.31 1008.14 1007.58 1007.74 1008.05 1008.22 1008.29 1008.51 1008.73 1008.76 1008.98 1009.39 1010.03 1010.85 1012.35 1013.17 1014.01 1015.07 1015.27 1015.01 1015.06 1015.11 1014.94 1015.52 1015.83 1016.10 1016.58 1016.90
1010.82 1010.98 1011.01 1010.91 1010.59 1010.01 1009.67 1008.45 1008.12 1009.00 1009.32 1009.42 1008.48 1008.26 1008.19 1008.37 1008.25 1008.55 1008.81 1009.14 1009.61 1009.92 1009.91 1010.53 1010.95 1011.96 1012.70 1013.53 1014.23 1014.62 1014.84 1014.84 1014.71 1015.13 1015.57 1015.71 1015.95 1016.48
1010.95 1010.94 1010.95 1011.13 1010.27 1010.52 1010.19 1009.34 1008.89 1009.39 1009.83 1010.06 1009.32 1009.22 1008.56 1008.90 1009.11 1008.92 1009.31 1009.67 1010.00 1010.56 1010.56 1010.64 1010.74 1011.18 1012.09 1012.73 1013.06 1013.99 1014.17 1014.61 1014.61 1014.90 1015.21 1015.51 1015.57 1015.33
1011.20 1010.84 1010.75 1010.70 1010.44 1009.96 1010.01 1009.99 1009.57 1009.50 1010.24 1009.95 1009.70 1009.65 1009.02 1009.59 1009.46 1009.39 1009.50 1009.86 1010.10 1010.24 1010.56 1010.99 1011.05 1011.28 1011.79 1012.24 1013.00 1013.15 1013.66 1014.20 1014.24 1014.69 1015.17 1015.63 1015.60 1015.42
1011.08 1010.86 1010.89 1010.86 1010.81 1010.38 1010.47 1009.71 1009.28 1009.57 1009.43 1009.39 1009.21 1009.25 1009.33 1009.13 1009.61 1009.66 1009.85 1009.88 1010.07 1010.22 1010.39 1011.01 1011.32 1012.01 1012.36 1012.64 1012.27 1012.78 1013.51 1013.85 1014.21 1014.44 1014.76 1015.51 1015.90 1015.68
1010.89 1010.77 1010.51 1010.17 1009.81 1009.69 1009.51 1009.47 1009.25 1009.35 1009.11 1008.59 1008.59 1008.91 1008.73 1008.95 1009.09 1009.48 1009.90 1009.77 1009.98 1009.97 1010.06 1010.47 1011.04 1011.41 1011.98 1012.27 1012.50 1012.38 1012.89 1013.46 1013.86 1014.17 1014.65 1015.27 1015.65 1015.96
1010.56 1010.46 1010.08 1009.79 1009.66 1009.67 1009.46 1009.37 1008.97 1008.61 1008.69 1008.34 1008.30 1008.48 1008.28 1008.31 1008.81 1009.12 1009.59 1009.58 1009.47 1009.83 1010.08 1010.05 1010.25 1010.38 1010.58 1011.04 1011.77 1012.44 1012.48 1012.89 1013.19 1013.75 1014.45 1015.01 1015.52 1015.93
1010.15 1009.83 1009.57 1009.41 1009.29 1009.01 1008.84 1008.83 1008.48 1008.25 1008.21 1008.06 1008.08 1008.28 1008.17 1008.13 1008.26 1008.71 1008.89 1008.96 1008.97 1009.10 1009.26 1009.35 1009.38 1009.76 1010.47 1010.80 1011.87 1012.50 1012.82 1012.61 1012.89 1013.18 1014.12 1014.72 1015.46 1015.60
1009.66 1009.52 1009.28 1009.03 1008.72 1008.34 1008.26 1008.06 1008.04 1007.98 1007.88 1007.63 1007.84 1007.94 1008.00 1007.92 1007.80 1008.08 1008.25 1008.18 1008.27 1008.32 1008.27 1008.69 1009.23 1009.66 1010.04 1010.28 1011.30 1012.27 1013.09 1013.46 1013.37 1013.56 1013.81 1013.85 1014.68 1014.97
1009.52 1008.89 1008.56 1008.26 1007.95 1007.76 1007.59 1007.43 1007.33 1007.33 1007.25 1007.14 1007.25 1007.22 1007.33 1007.41 1007.39 1007.36 1007.49 1007.76 1008.00 1008.23 1008.22 1008.63 1009.02 1009.22 1009.37 1009.64 1010.46 1011.63 1012.53 1013.22 1013.34 1013.93 1014.66 1014.16 1014.45 1014.12
Thickness
5681 5682 5680 5682 5681 5684 5685 5684 5679 5662 5666 5675 5675 5685 5680 5677 5679 5676 5671 5667 5663 5662 5659 5655 5652 5649 5647 5644 5641 5638 5635 5632 5628 5624 5621 5618 5615 5612
5676 5675 5674 5676 5677 5676 5677 5680 5678 5671 5663 5675 5677 5682 5680 5677 5677 5676 5675 5673 5668 5664 5661 5658 5654 5650 5647 5643 5640 5637 5634 5631 5628 5624 5620 5616 5613 5610
5667 5667 5671 5672 5670 5671 5671 5670 5666 5665 5662 5666 5675 5675 5672 5674 5676 5677 5676 5674 5671 5668 5663 5658 5655 5652 5648 5644 5640 5637 5634 5631 5628 5625 5621 5617 5612 5607
5660 5660 5664 5664 5662 5664 5664 5663 5663 5664 5659 5656 5661 5662 5667 5673 5674 5670 5672 5672 5670 5666 5662 5657 5654 5652 5649 5645 5640 5636 5633 5630 5627 5625 5621 5616 5610 5605
5656 5657 5663 5657 5657 5660 5660 5660 5660 5661 5658 5655 5656 5657 5660 5663 5661 5663 5665 5666 5666 5665 5660 5656 5655 5651 5646 5642 5640 5637 5634 5631 5626 5623 5620 5615 5610 5605
5648 5651 5657 5658 5657 5655 5656 5660 5659 5656 5654 5651 5649 5647 5650 5656 5656 5652 5654 5660 5660 5658 5655 5654 5649 5646 5643 5642 5640 5638 5633 5629 5626 5622 5617 5611 5607 5604
5645 5652 5658 5660 5662 5659 5652 5653 5654 5652 5650 5649 5647 5644 5645 5647 5650 5654 5651 5653 5650 5652 5648 5645 5641 5637 5638 5636 5635 5634 5632 5629 5624 5620 5615 5611 5606 5603
5635 5648 5653 5654 5656 5654 5651 5651 5647 5646 5648 5648 5649 5646 5646 5650 5650 5649 5647 5639 5636 5649 5645 5641 5638 5635 5636 5636 5635 5633 5629 5625 5622 5618 5613 5609 5607 5606
5617 5619 5649 5644 5650 5649 5646 5647 5645 5643 5648 5651 5647 5647 5648 5648 5646 5639 5641 5645 5649 5650 5641 5637 5632 5635 5634 5631 5629 5627 5625 5622 5620 5617 5611 5609 5605 5603
5596 5596 5601 5624 5629 5648 5648 5641 5642 5640 5639 5644 5650 5651 5650 5651 5648 5644 5641 5640 5627 5629 5636 5629 5626 5627 5631 5625 5622 5622 5619 5617 5615 5612 5608 5605 5601 5594
5565 5569 5575 5587 5610 5626 5647 5635 5634 5636 5632 5635 5635 5639 5639 5640 5639 5631 5619 5616 5605 5617 5621 5621 5613 5613 5611 5614 5616 5617 5617 5611 5607 5605 5603 5600 5595 5588
5551 5559 5565 5576 5575 5595 5605 5612 5623 5628 5624 5622 5625 5620 5624 5626 5625 5626 5622 5620 5604 5604 5616 5614 5603 5601 5595 5601 5607 5607 5608 5607 5602 5599 5598 5593 5590 5586
5523 5526 5540 5549 5551 5557 5582 5583 5591 5593 5596 5609 5618 5617 5612 5614 5613 5613 5616 5616 5604 5609 5614 5608 5595 5590 5588 5590 5595 5599 5601 5600 5597 5597 5594 5589 5584 5582
5506 5508 5518 5527 5530 5553 5552 5570 5576 5581 5582 5587 5594 5596 5599 5602 5600 5601 5604 5609 5609 5613 5608 5604 5595 5595 5592 5582 5590 5591 5591 5592 5593 5589 5586 5584 5580 5578
5493 5496 5502 5506 5517 5525 5537 5551 5560 5558 5560 5564 5576 5580 5584 5584 5586 5587 5590 5591 5592 5594 5597 5596 5597 5592 5593 5588 5586 5579 5579 5581 5581 5579 5576 5575 5573 5569
5479 5485 5490 5492 5501 5506 5518 5531 5539 5539 5541 5544 5553 5559 5567 5568 5571 5574 5577 5577 5580 5579 5582 5584 5587 5586 5580 5579 5579 5572 5571 5572 5569 5568 5566 5564 5563 5563
5463 5472 5479 5485 5491 5501 5503 5508 5518 5523 5524 5529 5536 5540 5550 5550 5555 5557 5562 5562 5568 5571 5571 5569 5573 5573 5571 5569 5566 5565 5562 5557 5557 5553 5550 5547 5547 5549
5447 5455 5461 5466 5473 5481 5483 5495 5505 5508 5513 5519 5525 5529 5533 5539 5540 5543 5545 5549 5554 5554 5555 5552 5554 5552 5552 5551 5556 5552 5546 5545 5543 5541 5537 5532 5530 5532
5431 5439 5445 5454 5464 5471 5479 5483 5489 5494 5500 5510 5514 5516 5521 5524 5527 5530 5530 5534 5536 5540 5542 5542 5542 5542 5541 5545 5537 5538 5535 5530 5528 5526 5523 5519 5516 5512
5422 5425 5432 5438 5444 5449 5457 5464 5474 5481 5485 5493 5499 5502 5507 5512 5512 5514 5515 5520 5526 5523 5524 5528 5530 5533 5537 5536 5526 5520 5519 5518 5518 5513 5507 5504 5501 5497
5410 5417 5422 5427 5430 5435 5440 5444 5454 5462 5467 5474 5479 5482 5488 5493 5499 5498 5502 5504 5507 5510 5514 5517 5518 5515 5511 5511 5507 5502 5500 5501 5500 5498 5491 5488 5482 5480
5393 5399 5405 5410 5417 5423 5425 5431 5435 5441 5447 5456 5459 5462 5467 5474 5480 5482 5485 5491 5493 5496 5501 5498 5494 5494 5494 5497 5490 5481 5476 5475 5476 5475 5474 5475 5469 5466
5372 5382 5388 5395 5402 5408 5413 5418 5423 5427 5431 5437 5442 5447 5452 5456 5460 5466 5469 5471 5473 5474 5475 5474 5473 5475 5478 5480 5475 5466 5459 5455 5456 5453 5450 5453 5451 5455